Time,TemperatureF,DewpointF,PressureIn,WindDirection,WindDirectionDegrees,WindSpeedMPH,WindSpeedGustMPH,Humidity,HourlyPrecipIn,Conditions,Clouds,dailyrainin,SoftwareType,DateUTC
2013-12-04 00:04:00,66.6,57.3,29.85,NW,318,0.0,0.0,72,0.00,CLR,,0.00,WeatherDisplay:10.37,2013-12-03 13:04:00,
2013-12-04 00:09:00,66.6,57.3,29.84,North,4,0.0,0.0,72,0.00,CLR,,0.00,WeatherDisplay:10.37,2013-12-03 13:09:00,
2013-12-04 00:14:00,66.4,57.1,29.84,NE,37,0.0,1.0,72,0.00,CLR,,0.00,WeatherDisplay:10.37,2013-12-03 13:14:00,
2013-12-04 00:19:00,66.3,57.0,29.84,North,1,0.0,0.0,72,0.00,CLR,,0.00,WeatherDisplay:10.37,2013-12-03 13:19:00,
2013-12-04 00:24:00,66.0,56.7,29.84,NNW,342,0.0,0.0,72,0.00,CLR,,0.00,WeatherDisplay:10.37,2013-12-03 13:24:00,
2013-12-04 00:29:00,65.8,56.6,29.84,NW,326,0.0,0.0,72,0.00,CLR,,0.00,WeatherDisplay:10.37,2013-12-03 13:29:00,
2013-12-04 00:34:00,65.5,56.7,29.84,NW,315,0.0,0.0,73,0.00,CLR,,0.00,WeatherDisplay:10.37,2013-12-03 13:34:00,
2013-12-04 00:39:00,65.5,56.6,29.84,WNW,300,0.0,0.0,73,0.00,CLR,,0.00,WeatherDisplay:10.37,2013-12-03 13:39:00,
2013-12-04 00:44:00,65.1,56.2,29.84,WNW,290,0.0,2.0,73,0.00,CLR,,0.00,WeatherDisplay:10.37,2013-12-03 13:44:00,
2013-12-04 00:49:00,64.8,55.9,29.84,WNW,295,1.0,2.0,73,0.00,CLR,,0.00,WeatherDisplay:10.37,2013-12-03 13:49:00,
2013-12-04 00:59:00,64.6,56.1,29.83,NW,305,0.0,2.0,74,0.00,CLR,,0.00,WeatherDisplay:10.37,2013-12-03 13:59:00,
2013-12-04 01:04:00,64.8,56.3,29.83,NW,315,0.0,0.0,74,0.00,CLR,,0.00,WeatherDisplay:10.37,2013-12-03 14:04:00,
2013-12-04 01:09:00,64.8,56.3,29.83,NNW,334,0.0,0.0,74,0.00,CLR,,0.00,WeatherDisplay:10.37,2013-12-03 14:09:00,
2013-12-04 01:14:00,64.6,56.1,29.83,WNW,285,0.0,0.0,74,0.00,CLR,,0.00,WeatherDisplay:10.37,2013-12-03 14:14:00,
2013-12-04 01:19:00,64.2,55.8,29.83,West,264,0.0,0.0,74,0.00,CLR,,0.00,WeatherDisplay:10.37,2013-12-03 14:19:00,
2013-12-04 01:24:00,64.2,55.8,29.82,NW,309,0.0,1.0,74,0.00,CLR,,0.00,WeatherDisplay:10.37,2013-12-03 14:24:00,
2013-12-04 01:29:00,64.2,55.8,29.82,NNE,30,0.0,0.0,74,0.00,CLR,,0.00,WeatherDisplay:10.37,2013-12-03 14:29:00,
2013-12-04 01:34:00,64.2,55.4,29.81,NE,56,0.0,1.0,73,0.00,CLR,,0.00,WeatherDisplay:10.37,2013-12-03 14:34:00,
2013-12-04 01:39:00,63.8,55.4,29.81,WSW,255,0.0,1.0,74,0.00,CLR,,0.00,WeatherDisplay:10.37,2013-12-03 14:39:00,
2013-12-04 01:44:00,63.4,55.0,29.81,West,275,0.0,2.0,74,0.00,CLR,,0.00,WeatherDisplay:10.37,2013-12-03 14:44:00,
2013-12-04 01:49:00,63.1,55.1,29.81,West,277,0.0,2.0,75,0.00,CLR,,0.00,WeatherDisplay:10.37,2013-12-03 14:49:00,
2013-12-04 01:54:00,63.1,55.4,29.81,NW,313,0.0,2.0,76,0.00,CLR,,0.00,WeatherDisplay:10.37,2013-12-03 14:54:00,
2013-12-04 01:59:00,63.3,55.6,29.81,NNW,331,0.0,4.0,76,0.00,CLR,,0.00,WeatherDisplay:10.37,2013-12-03 14:59:00,
2013-12-04 02:04:00,63.3,55.3,29.81,NW,310,0.0,4.0,75,0.00,CLR,,0.00,WeatherDisplay:10.37,2013-12-03 15:04:00,
2013-12-04 02:09:00,63.1,55.4,29.81,WNW,284,0.0,2.0,76,0.00,CLR,,0.00,WeatherDisplay:10.37,2013-12-03 15:09:00,
2013-12-04 02:14:00,63.3,55.6,29.80,NW,312,0.0,0.0,76,0.00,CLR,,0.00,WeatherDisplay:10.37,2013-12-03 15:14:00,
2013-12-04 02:19:00,63.3,55.3,29.80,North,356,0.0,0.0,75,0.00,CLR,,0.00,WeatherDisplay:10.37,2013-12-03 15:19:00,
2013-12-04 02:24:00,63.2,55.2,29.80,NNE,18,0.0,0.0,75,0.00,CLR,,0.00,WeatherDisplay:10.37,2013-12-03 15:24:00,
2013-12-04 02:29:00,63.1,55.1,29.80,NNW,328,0.0,0.0,75,0.00,CLR,,0.00,WeatherDisplay:10.37,2013-12-03 15:29:00,
2013-12-04 02:34:00,62.8,54.7,29.79,NW,318,0.0,0.0,75,0.00,CLR,,0.00,WeatherDisplay:10.37,2013-12-03 15:34:00,
2013-12-04 02:39:00,62.8,54.7,29.78,East,79,0.0,0.0,75,0.00,CLR,,0.00,WeatherDisplay:10.37,2013-12-03 15:39:00,
2013-12-04 02:44:00,62.6,54.6,29.78,NE,54,0.0,0.0,75,0.00,CLR,,0.00,WeatherDisplay:10.37,2013-12-03 15:44:00,
2013-12-04 02:49:00,62.7,54.7,29.78,West,277,0.0,0.0,75,0.00,CLR,,0.00,WeatherDisplay:10.37,2013-12-03 15:49:00,
2013-12-04 02:54:00,62.7,54.7,29.78,West,270,0.0,0.0,75,0.00,CLR,,0.00,WeatherDisplay:10.37,2013-12-03 15:54:00,
2013-12-04 02:59:00,62.5,54.5,29.78,West,269,0.0,1.0,75,0.00,CLR,,0.00,WeatherDisplay:10.37,2013-12-03 15:59:00,
2013-12-04 03:04:00,62.2,54.2,29.78,West,269,0.0,1.0,75,0.00,CLR,,0.00,WeatherDisplay:10.37,2013-12-03 16:04:00,
2013-12-04 03:09:00,62.1,54.4,29.78,WNW,290,0.0,2.0,76,0.00,CLR,,0.00,WeatherDisplay:10.37,2013-12-03 16:09:00,
2013-12-04 03:14:00,62.2,54.9,29.78,NW,309,0.0,1.0,77,0.00,CLR,,0.00,WeatherDisplay:10.37,2013-12-03 16:14:00,
2013-12-04 03:19:00,62.3,55.0,29.78,North,6,0.0,0.0,77,0.00,CLR,,0.00,WeatherDisplay:10.37,2013-12-03 16:19:00,
2013-12-04 03:24:00,62.4,55.1,29.78,ENE,68,0.0,0.0,77,0.00,CLR,,0.00,WeatherDisplay:10.37,2013-12-03 16:24:00,
2013-12-04 03:29:00,62.2,54.6,29.77,ESE,105,0.0,0.0,76,0.00,CLR,,0.00,WeatherDisplay:10.37,2013-12-03 16:29:00,
2013-12-04 03:34:00,61.9,54.2,29.77,ESE,112,0.0,0.0,76,0.00,CLR,,0.00,WeatherDisplay:10.37,2013-12-03 16:34:00,
2013-12-04 03:39:00,61.7,54.1,29.77,ESE,112,0.0,0.0,76,0.00,CLR,,0.00,WeatherDisplay:10.37,2013-12-03 16:39:00,
2013-12-04 03:44:00,61.5,53.9,29.77,East,89,0.0,0.0,76,0.00,CLR,,0.00,WeatherDisplay:10.37,2013-12-03 16:44:00,
2013-12-04 03:49:00,61.5,53.9,29.77,NE,37,0.0,0.0,76,0.00,CLR,,0.00,WeatherDisplay:10.37,2013-12-03 16:49:00,
2013-12-04 03:54:00,61.5,53.9,29.77,NW,316,0.0,0.0,76,0.00,CLR,,0.00,WeatherDisplay:10.37,2013-12-03 16:54:00,
2013-12-04 03:59:00,61.3,54.1,29.77,West,264,0.0,0.0,77,0.00,CLR,,0.00,WeatherDisplay:10.37,2013-12-03 16:59:00,
2013-12-04 04:04:00,61.3,53.7,29.77,West,263,0.0,0.0,76,0.00,CLR,,0.00,WeatherDisplay:10.37,2013-12-03 17:04:00,
2013-12-04 04:09:00,61.2,53.5,29.77,West,269,0.0,0.0,76,0.00,CLR,,0.00,WeatherDisplay:10.37,2013-12-03 17:09:00,
2013-12-04 04:14:00,61.0,53.4,29.76,West,270,0.0,0.0,76,0.00,CLR,,0.00,WeatherDisplay:10.37,2013-12-03 17:14:00,
2013-12-04 04:19:00,61.0,53.4,29.76,West,270,0.0,0.0,76,0.00,CLR,,0.00,WeatherDisplay:10.37,2013-12-03 17:19:00,
2013-12-04 04:24:00,61.0,53.3,29.76,West,273,0.0,0.0,76,0.00,CLR,,0.00,WeatherDisplay:10.37,2013-12-03 17:24:00,
2013-12-04 04:29:00,60.6,53.0,29.76,West,278,0.0,0.0,76,0.00,CLR,,0.00,WeatherDisplay:10.37,2013-12-03 17:29:00,
2013-12-04 04:34:00,60.5,53.2,29.76,WNW,284,0.0,0.0,77,0.00,CLR,,0.00,WeatherDisplay:10.37,2013-12-03 17:34:00,
2013-12-04 04:39:00,60.6,53.4,29.76,WSW,256,0.0,0.0,77,0.00,CLR,,0.00,WeatherDisplay:10.37,2013-12-03 17:39:00,
2013-12-04 04:44:00,60.6,53.0,29.76,SW,231,0.0,0.0,76,0.00,CLR,,0.00,WeatherDisplay:10.37,2013-12-03 17:44:00,
2013-12-04 04:49:00,60.6,53.4,29.76,West,269,0.0,0.0,77,0.00,CLR,,0.00,WeatherDisplay:10.37,2013-12-03 17:49:00,
2013-12-04 04:54:00,60.4,53.2,29.76,NW,305,0.0,0.0,77,0.00,CLR,,0.00,WeatherDisplay:10.37,2013-12-03 17:54:00,
2013-12-04 04:59:00,60.4,53.2,29.76,West,259,0.0,0.0,77,0.00,CLR,,0.00,WeatherDisplay:10.37,2013-12-03 17:59:00,
2013-12-04 05:04:00,60.4,53.1,29.76,SSE,158,0.0,0.0,77,0.00,CLR,,0.00,WeatherDisplay:10.37,2013-12-03 18:04:00,
2013-12-04 05:09:00,60.2,53.0,29.76,East,87,0.0,0.0,77,0.00,CLR,,0.00,WeatherDisplay:10.37,2013-12-03 18:09:00,
2013-12-04 05:14:00,60.4,53.2,29.76,East,79,0.0,0.0,77,0.00,CLR,,0.00,WeatherDisplay:10.37,2013-12-03 18:14:00,
2013-12-04 05:19:00,60.4,53.2,29.76,NW,307,0.0,0.0,77,0.00,CLR,,0.00,WeatherDisplay:10.37,2013-12-03 18:19:00,
2013-12-04 05:24:00,60.1,53.2,29.76,WSW,254,0.0,0.0,78,0.00,CLR,,0.00,WeatherDisplay:10.37,2013-12-03 18:24:00,
2013-12-04 05:29:00,60.1,52.8,29.75,SSE,161,0.0,0.0,77,0.00,CLR,,0.00,WeatherDisplay:10.37,2013-12-03 18:29:00,
2013-12-04 05:34:00,60.1,52.8,29.75,ESE,105,0.0,0.0,77,0.00,CLR,,0.00,WeatherDisplay:10.37,2013-12-03 18:34:00,
2013-12-04 05:39:00,60.0,52.7,29.75,NNE,30,0.0,0.0,77,0.00,CLR,,0.00,WeatherDisplay:10.37,2013-12-03 18:39:00,
2013-12-04 05:44:00,59.9,53.0,29.75,WNW,284,0.0,0.0,78,0.00,CLR,,0.00,WeatherDisplay:10.37,2013-12-03 18:44:00,
2013-12-04 05:49:00,60.0,53.2,29.75,WSW,241,0.0,0.0,78,0.00,CLR,,0.00,WeatherDisplay:10.37,2013-12-03 18:49:00,
2013-12-04 05:54:00,60.0,53.1,29.75,WNW,282,1.0,2.0,78,0.00,CLR,,0.00,WeatherDisplay:10.37,2013-12-03 18:54:00,
2013-12-04 05:59:00,60.1,53.5,29.74,NE,34,1.0,3.0,79,0.00,CLR,,0.00,WeatherDisplay:10.37,2013-12-03 18:59:00,
2013-12-04 06:04:00,60.4,54.2,29.74,NNE,32,0.0,3.0,80,0.00,CLR,,0.00,WeatherDisplay:10.37,2013-12-03 19:04:00,
2013-12-04 06:09:00,60.6,54.4,29.74,North,355,0.0,2.0,80,0.00,CLR,,0.00,WeatherDisplay:10.37,2013-12-03 19:09:00,
2013-12-04 06:14:00,60.7,54.9,29.74,NW,320,1.0,3.0,81,0.00,CLR,,0.00,WeatherDisplay:10.37,2013-12-03 19:14:00,
2013-12-04 06:19:00,61.0,55.1,29.74,WNW,289,0.0,2.0,81,0.00,CLR,,0.00,WeatherDisplay:10.37,2013-12-03 19:19:00,
2013-12-04 06:29:00,61.0,55.1,29.74,WNW,297,0.0,2.0,81,0.00,CLR,,0.00,WeatherDisplay:10.37,2013-12-03 19:29:00,
2013-12-04 06:34:00,61.2,55.3,29.74,NNW,337,1.0,3.0,81,0.00,CLR,,0.00,WeatherDisplay:10.37,2013-12-03 19:34:00,
2013-12-04 06:39:00,61.0,55.1,29.74,North,4,3.0,7.0,81,0.00,CLR,,0.00,WeatherDisplay:10.37,2013-12-03 19:39:00,
2013-12-04 06:44:00,61.3,55.7,29.74,North,5,3.0,5.0,82,0.00,CLR,,0.00,WeatherDisplay:10.37,2013-12-03 19:44:00,
2013-12-04 06:49:00,61.3,55.8,29.74,North,5,2.0,5.0,82,0.00,CLR,,0.00,WeatherDisplay:10.37,2013-12-03 19:49:00,
2013-12-04 06:54:00,61.7,56.1,29.74,North,4,2.0,7.0,82,0.00,CLR,,0.00,WeatherDisplay:10.37,2013-12-03 19:54:00,
2013-12-04 06:59:00,62.2,56.6,29.74,NNE,14,5.0,8.0,82,0.00,CLR,,0.00,WeatherDisplay:10.37,2013-12-03 19:59:00,
2013-12-04 07:04:00,62.4,56.9,29.74,NNE,18,5.0,6.0,82,0.00,CLR,,0.00,WeatherDisplay:10.37,2013-12-03 20:04:00,
2013-12-04 07:09:00,62.6,57.1,29.73,NNE,14,3.0,8.0,82,0.00,CLR,,0.00,WeatherDisplay:10.37,2013-12-03 20:09:00,
2013-12-04 07:14:00,63.0,57.4,29.73,NNE,16,3.0,10.0,82,0.00,CLR,,0.00,WeatherDisplay:10.37,2013-12-03 20:14:00,
2013-12-04 07:19:00,63.1,57.6,29.73,NNE,18,6.0,9.0,82,0.00,CLR,,0.00,WeatherDisplay:10.37,2013-12-03 20:19:00,
2013-12-04 07:24:00,63.3,57.3,29.73,North,8,5.0,9.0,81,0.00,CLR,,0.00,WeatherDisplay:10.37,2013-12-03 20:24:00,
2013-12-04 07:29:00,63.3,57.4,29.74,North,11,6.0,10.0,81,0.00,CLR,,0.00,WeatherDisplay:10.37,2013-12-03 20:29:00,
2013-12-04 07:34:00,63.4,57.5,29.74,North,6,3.0,12.0,81,0.00,CLR,,0.00,WeatherDisplay:10.37,2013-12-03 20:34:00,
2013-12-04 07:39:00,63.7,57.4,29.74,North,4,6.0,12.0,80,0.00,CLR,,0.00,WeatherDisplay:10.37,2013-12-03 20:39:00,
2013-12-04 07:44:00,64.2,57.9,29.74,North,3,7.0,9.0,80,0.00,CLR,,0.00,WeatherDisplay:10.37,2013-12-03 20:44:00,
2013-12-04 07:49:00,64.6,58.3,29.74,North,356,5.0,11.0,80,0.00,CLR,,0.00,WeatherDisplay:10.37,2013-12-03 20:49:00,
2013-12-04 07:54:00,64.8,58.1,29.74,North,351,3.0,8.0,79,0.00,CLR,,0.00,WeatherDisplay:10.37,2013-12-03 20:54:00,
2013-12-04 07:59:00,64.8,58.1,29.74,North,6,3.0,7.0,79,0.00,CLR,,0.00,WeatherDisplay:10.37,2013-12-03 20:59:00,
2013-12-04 08:04:00,64.9,58.3,29.74,North,10,3.0,7.0,79,0.00,CLR,,0.00,WeatherDisplay:10.37,2013-12-03 21:04:00,
2013-12-04 08:09:00,65.0,58.3,29.74,NNE,17,5.0,7.0,79,0.00,CLR,,0.00,WeatherDisplay:10.37,2013-12-03 21:09:00,
2013-12-04 08:14:00,65.1,58.4,29.75,North,11,3.0,7.0,79,0.00,CLR,,0.00,WeatherDisplay:10.37,2013-12-03 21:14:00,
2013-12-04 08:19:00,65.5,58.4,29.75,North,360,5.0,12.0,78,0.00,CLR,,0.00,WeatherDisplay:10.37,2013-12-03 21:19:00,
2013-12-04 08:24:00,65.7,58.6,29.75,North,2,3.0,8.0,78,0.00,CLR,,0.00,WeatherDisplay:10.37,2013-12-03 21:24:00,
2013-12-04 08:29:00,66.0,59.0,29.75,North,354,3.0,7.0,78,0.00,CLR,,0.00,WeatherDisplay:10.37,2013-12-03 21:29:00,
2013-12-04 08:34:00,66.4,58.9,29.75,North,3,5.0,11.0,77,0.00,CLR,,0.00,WeatherDisplay:10.37,2013-12-03 21:34:00,
2013-12-04 08:39:00,66.7,59.3,29.75,North,9,6.0,11.0,77,0.00,CLR,,0.00,WeatherDisplay:10.37,2013-12-03 21:39:00,
2013-12-04 08:44:00,67.2,59.0,29.74,North,10,8.0,11.0,75,0.00,CLR,,0.00,WeatherDisplay:10.37,2013-12-03 21:44:00,
2013-12-04 08:49:00,67.6,59.4,29.74,North,8,2.0,8.0,75,0.00,CLR,,0.00,WeatherDisplay:10.37,2013-12-03 21:49:00,
2013-12-04 08:54:00,67.8,59.2,29.74,NNE,22,1.0,6.0,74,0.00,CLR,,0.00,WeatherDisplay:10.37,2013-12-03 21:54:00,
2013-12-04 08:59:00,68.2,59.6,29.73,NNE,30,1.0,5.0,74,0.00,CLR,,0.00,WeatherDisplay:10.37,2013-12-03 21:59:00,
2013-12-04 09:04:00,68.4,59.4,29.73,North,8,2.0,7.0,73,0.00,CLR,,0.00,WeatherDisplay:10.37,2013-12-03 22:04:00,
2013-12-04 09:09:00,68.9,59.9,29.73,North,7,3.0,10.0,73,0.00,CLR,,0.00,WeatherDisplay:10.37,2013-12-03 22:09:00,
2013-12-04 09:14:00,69.4,60.0,29.73,North,5,3.0,6.0,72,0.00,CLR,,0.00,WeatherDisplay:10.37,2013-12-03 22:14:00,
2013-12-04 09:19:00,69.6,59.8,29.73,North,355,3.0,7.0,71,0.00,CLR,,0.00,WeatherDisplay:10.37,2013-12-03 22:19:00,
2013-12-04 09:24:00,70.0,59.8,29.73,North,2,2.0,6.0,70,0.00,CLR,,0.00,WeatherDisplay:10.37,2013-12-03 22:24:00,
2013-12-04 09:29:00,70.5,59.8,29.73,North,353,2.0,5.0,69,0.00,CLR,,0.00,WeatherDisplay:10.37,2013-12-03 22:29:00,
2013-12-04 09:34:00,71.1,59.6,29.72,North,354,3.0,9.0,67,0.00,CLR,,0.00,WeatherDisplay:10.37,2013-12-03 22:34:00,
2013-12-04 09:39:00,71.7,59.8,29.72,North,354,7.0,12.0,66,0.00,CLR,,0.00,WeatherDisplay:10.37,2013-12-03 22:39:00,
2013-12-04 09:44:00,72.4,59.6,29.71,North,354,5.0,10.0,64,0.00,CLR,,0.00,WeatherDisplay:10.37,2013-12-03 22:44:00,
2013-12-04 09:49:00,72.7,59.4,29.71,North,353,3.0,9.0,63,0.00,CLR,,0.00,WeatherDisplay:10.37,2013-12-03 22:49:00,
2013-12-04 09:54:00,73.2,59.9,29.71,NNW,341,2.0,6.0,63,0.00,CLR,,0.00,WeatherDisplay:10.37,2013-12-03 22:54:00,
2013-12-04 09:59:00,73.7,59.9,29.71,North,356,1.0,9.0,62,0.00,CLR,,0.00,WeatherDisplay:10.37,2013-12-03 22:59:00,
2013-12-04 10:04:00,74.1,60.3,29.71,NNE,15,3.0,7.0,62,0.00,CLR,,0.00,WeatherDisplay:10.37,2013-12-03 23:04:00,
2013-12-04 10:09:00,74.5,60.1,29.71,North,357,3.0,10.0,61,0.00,CLR,,0.00,WeatherDisplay:10.37,2013-12-03 23:09:00,
2013-12-04 10:14:00,75.0,60.1,29.71,NW,319,5.0,7.0,60,0.00,CLR,,0.00,WeatherDisplay:10.37,2013-12-03 23:14:00,
2013-12-04 10:19:00,75.4,59.1,29.71,NNW,347,5.0,10.0,57,0.00,CLR,,0.00,WeatherDisplay:10.37,2013-12-03 23:19:00,
2013-12-04 10:24:00,75.7,58.8,29.71,North,352,3.0,12.0,56,0.00,CLR,,0.00,WeatherDisplay:10.37,2013-12-03 23:24:00,
2013-12-04 10:29:00,76.1,58.2,29.71,NNW,338,5.0,13.0,54,0.00,CLR,,0.00,WeatherDisplay:10.37,2013-12-03 23:29:00,
2013-12-04 10:34:00,76.6,59.3,29.71,NNW,339,5.0,7.0,55,0.00,CLR,,0.00,WeatherDisplay:10.37,2013-12-03 23:34:00,
2013-12-04 10:39:00,76.8,58.9,29.71,North,349,5.0,10.0,54,0.00,CLR,,0.00,WeatherDisplay:10.37,2013-12-03 23:39:00,
2013-12-04 10:44:00,77.3,59.3,29.71,NNW,346,7.0,10.0,54,0.00,CLR,,0.00,WeatherDisplay:10.37,2013-12-03 23:44:00,
2013-12-04 10:49:00,77.6,59.2,29.70,North,349,7.0,11.0,53,0.00,CLR,,0.00,WeatherDisplay:10.37,2013-12-03 23:49:00,
2013-12-04 10:54:00,78.1,60.1,29.69,North,356,6.0,8.0,54,0.00,CLR,,0.00,WeatherDisplay:10.37,2013-12-03 23:54:00,
2013-12-04 10:59:00,78.4,60.4,29.68,North,1,3.0,9.0,54,0.00,CLR,,0.00,WeatherDisplay:10.37,2013-12-03 23:59:00,
2013-12-04 11:04:00,78.7,60.7,29.68,North,11,5.0,7.0,54,0.00,CLR,,0.00,WeatherDisplay:10.37,2013-12-04 00:04:00,
2013-12-04 11:09:00,79.1,60.5,29.67,North,355,3.0,8.0,53,0.00,CLR,,0.00,WeatherDisplay:10.37,2013-12-04 00:09:00,
2013-12-04 11:14:00,79.5,60.9,29.67,NNW,344,3.0,10.0,53,0.00,CLR,,0.00,WeatherDisplay:10.37,2013-12-04 00:14:00,
2013-12-04 11:19:00,80.3,61.1,29.67,North,358,6.0,10.0,52,0.00,CLR,,0.00,WeatherDisplay:10.37,2013-12-04 00:19:00,
2013-12-04 11:24:00,80.6,60.8,29.67,North,357,6.0,12.0,51,0.00,CLR,,0.00,WeatherDisplay:10.37,2013-12-04 00:24:00,
2013-12-04 11:29:00,81.0,60.6,29.67,North,356,3.0,11.0,50,0.00,CLR,,0.00,WeatherDisplay:10.37,2013-12-04 00:29:00,
2013-12-04 11:34:00,81.1,60.7,29.66,North,353,5.0,11.0,50,0.00,CLR,,0.00,WeatherDisplay:10.37,2013-12-04 00:34:00,
2013-12-04 11:39:00,81.5,60.5,29.66,North,360,5.0,12.0,49,0.00,CLR,,0.00,WeatherDisplay:10.37,2013-12-04 00:39:00,
2013-12-04 11:49:00,82.2,60.6,29.66,North,351,5.0,9.0,48,0.00,CLR,,0.00,WeatherDisplay:10.37,2013-12-04 00:49:00,
2013-12-04 11:54:00,82.1,60.5,29.65,NNW,344,5.0,9.0,48,0.00,CLR,,0.00,WeatherDisplay:10.37,2013-12-04 00:54:00,
2013-12-04 11:59:00,82.2,60.6,29.65,NNW,331,3.0,12.0,48,0.00,CLR,,0.00,WeatherDisplay:10.37,2013-12-04 00:59:00,
2013-12-04 12:04:00,82.3,60.6,29.65,NNW,334,2.0,11.0,48,0.00,CLR,,0.00,WeatherDisplay:10.37,2013-12-04 01:04:00,
2013-12-04 12:09:00,82.8,60.5,29.65,North,356,5.0,8.0,47,0.00,CLR,,0.00,WeatherDisplay:10.37,2013-12-04 01:09:00,
2013-12-04 12:14:00,82.9,60.6,29.65,North,356,6.0,8.0,47,0.00,CLR,,0.00,WeatherDisplay:10.37,2013-12-04 01:14:00,
2013-12-04 12:19:00,82.9,60.6,29.65,NNW,346,5.0,7.0,47,0.00,CLR,,0.00,WeatherDisplay:10.37,2013-12-04 01:19:00,
2013-12-04 12:24:00,83.1,60.2,29.65,NNW,336,2.0,8.0,46,0.00,CLR,,0.00,WeatherDisplay:10.37,2013-12-04 01:24:00,
2013-12-04 12:29:00,83.1,60.2,29.64,North,353,6.0,10.0,46,0.00,CLR,,0.00,WeatherDisplay:10.37,2013-12-04 01:29:00,
2013-12-04 12:34:00,83.1,60.8,29.64,North,355,2.0,8.0,47,0.00,CLR,,0.00,WeatherDisplay:10.37,2013-12-04 01:34:00,
2013-12-04 12:39:00,83.1,60.2,29.64,North,1,3.0,8.0,46,0.00,CLR,,0.00,WeatherDisplay:10.37,2013-12-04 01:39:00,
2013-12-04 12:44:00,83.4,61.1,29.64,North,1,2.0,7.0,47,0.00,CLR,,0.00,WeatherDisplay:10.37,2013-12-04 01:44:00,
2013-12-04 12:49:00,83.8,60.8,29.63,North,1,3.0,8.0,46,0.00,CLR,,0.00,WeatherDisplay:10.37,2013-12-04 01:49:00,
2013-12-04 12:54:00,84.3,60.6,29.63,North,352,5.0,9.0,45,0.00,CLR,,0.00,WeatherDisplay:10.37,2013-12-04 01:54:00,
2013-12-04 12:59:00,84.5,60.8,29.62,North,0,2.0,10.0,45,0.00,CLR,,0.00,WeatherDisplay:10.37,2013-12-04 01:59:00,
2013-12-04 13:04:00,84.5,60.8,29.62,North,7,2.0,10.0,45,0.00,CLR,,0.00,WeatherDisplay:10.37,2013-12-04 02:04:00,
2013-12-04 13:09:00,84.9,60.5,29.62,North,5,5.0,10.0,44,0.00,CLR,,0.00,WeatherDisplay:10.37,2013-12-04 02:09:00,
2013-12-04 13:14:00,84.9,59.9,29.62,North,2,3.0,12.0,43,0.00,CLR,,0.00,WeatherDisplay:10.37,2013-12-04 02:14:00,
2013-12-04 13:19:00,85.4,61.7,29.61,North,2,5.0,12.0,45,0.00,CLR,,0.00,WeatherDisplay:10.37,2013-12-04 02:19:00,
2013-12-04 13:24:00,86.3,60.5,29.61,North,7,5.0,11.0,42,0.00,CLR,,0.00,WeatherDisplay:10.37,2013-12-04 02:24:00,
2013-12-04 13:29:00,86.5,60.7,29.60,North,5,6.0,12.0,42,0.00,CLR,,0.00,WeatherDisplay:10.37,2013-12-04 02:29:00,
2013-12-04 13:34:00,86.9,61.0,29.60,NNW,338,6.0,8.0,42,0.00,CLR,,0.00,WeatherDisplay:10.37,2013-12-04 02:34:00,
2013-12-04 13:39:00,87.3,60.7,29.60,NW,318,2.0,8.0,41,0.00,CLR,,0.00,WeatherDisplay:10.37,2013-12-04 02:39:00,
2013-12-04 13:44:00,87.5,60.2,29.60,NNW,331,6.0,11.0,40,0.00,CLR,,0.00,WeatherDisplay:10.37,2013-12-04 02:44:00,
2013-12-04 13:49:00,87.6,58.9,29.59,NNW,334,3.0,9.0,38,0.00,CLR,,0.00,WeatherDisplay:10.37,2013-12-04 02:49:00,
2013-12-04 13:54:00,88.0,59.2,29.59,NNW,345,3.0,7.0,38,0.00,CLR,,0.00,WeatherDisplay:10.37,2013-12-04 02:54:00,
2013-12-04 13:59:00,88.3,59.5,29.58,North,0,6.0,9.0,38,0.00,CLR,,0.00,WeatherDisplay:10.37,2013-12-04 02:59:00,
2013-12-04 14:04:00,88.5,58.9,29.58,NNW,346,1.0,7.0,37,0.00,CLR,,0.00,WeatherDisplay:10.37,2013-12-04 03:04:00,
2013-12-04 14:09:00,88.3,58.0,29.58,NNW,335,5.0,11.0,36,0.00,CLR,,0.00,WeatherDisplay:10.37,2013-12-04 03:09:00,
2013-12-04 14:14:00,88.6,59.0,29.57,North,352,6.0,10.0,37,0.00,CLR,,0.00,WeatherDisplay:10.37,2013-12-04 03:14:00,
2013-12-04 14:19:00,88.7,59.1,29.57,North,7,8.0,13.0,37,0.00,CLR,,0.00,WeatherDisplay:10.37,2013-12-04 03:19:00,
2013-12-04 14:24:00,89.4,58.9,29.57,North,8,6.0,12.0,36,0.00,CLR,,0.00,WeatherDisplay:10.37,2013-12-04 03:24:00,
2013-12-04 14:29:00,89.4,59.0,29.57,North,351,5.0,10.0,36,0.00,CLR,,0.00,WeatherDisplay:10.37,2013-12-04 03:29:00,
2013-12-04 14:34:00,89.2,58.0,29.57,NNW,344,1.0,7.0,35,0.00,CLR,,0.00,WeatherDisplay:10.37,2013-12-04 03:34:00,
2013-12-04 14:39:00,88.9,58.5,29.56,NNW,336,1.0,7.0,36,0.00,CLR,,0.00,WeatherDisplay:10.37,2013-12-04 03:39:00,
2013-12-04 14:44:00,89.0,58.6,29.56,North,357,5.0,9.0,36,0.00,CLR,,0.00,WeatherDisplay:10.37,2013-12-04 03:44:00,
2013-12-04 14:49:00,89.8,58.5,29.56,North,357,3.0,9.0,35,0.00,CLR,,0.00,WeatherDisplay:10.37,2013-12-04 03:49:00,
2013-12-04 14:54:00,90.1,58.7,29.56,North,358,6.0,12.0,35,0.00,CLR,,0.00,WeatherDisplay:10.37,2013-12-04 03:54:00,
2013-12-04 14:59:00,90.2,57.2,29.56,North,7,9.0,15.0,33,0.00,CLR,,0.00,WeatherDisplay:10.37,2013-12-04 03:59:00,
2013-12-04 15:04:00,90.2,56.4,29.55,North,360,5.0,12.0,32,0.00,CLR,,0.00,WeatherDisplay:10.37,2013-12-04 04:04:00,
2013-12-04 15:09:00,90.0,56.2,29.55,North,9,5.0,11.0,32,0.00,CLR,,0.00,WeatherDisplay:10.37,2013-12-04 04:09:00,
2013-12-04 15:14:00,90.0,56.1,29.54,North,1,3.0,8.0,32,0.00,CLR,,0.00,WeatherDisplay:10.37,2013-12-04 04:14:00,
2013-12-04 15:19:00,90.1,56.3,29.54,NNW,340,3.0,9.0,32,0.00,CLR,,0.00,WeatherDisplay:10.37,2013-12-04 04:19:00,
2013-12-04 15:24:00,90.2,57.2,29.53,NNW,340,5.0,8.0,33,0.00,CLR,,0.00,WeatherDisplay:10.37,2013-12-04 04:24:00,
2013-12-04 15:29:00,90.3,59.7,29.53,North,357,3.0,6.0,36,0.00,CLR,,0.00,WeatherDisplay:10.37,2013-12-04 04:29:00,
2013-12-04 15:34:00,90.2,60.4,29.53,North,9,5.0,8.0,37,0.00,CLR,,0.00,WeatherDisplay:10.37,2013-12-04 04:34:00,
2013-12-04 15:39:00,90.0,61.7,29.52,NNE,21,3.0,9.0,39,0.00,CLR,,0.00,WeatherDisplay:10.37,2013-12-04 04:39:00,
2013-12-04 15:44:00,89.8,62.2,29.52,NE,45,3.0,8.0,40,0.00,CLR,,0.00,WeatherDisplay:10.37,2013-12-04 04:44:00,
2013-12-04 15:49:00,89.4,61.9,29.53,NNE,30,5.0,11.0,40,0.00,CLR,,0.00,WeatherDisplay:10.37,2013-12-04 04:49:00,
2013-12-04 15:54:00,89.4,62.6,29.53,NE,34,2.0,7.0,41,0.00,CLR,,0.00,WeatherDisplay:10.37,2013-12-04 04:54:00,
2013-12-04 15:59:00,89.2,62.5,29.53,NE,40,2.0,6.0,41,0.00,CLR,,0.00,WeatherDisplay:10.37,2013-12-04 04:59:00,
2013-12-04 16:04:00,89.2,62.5,29.53,NE,35,2.0,6.0,41,0.00,CLR,,0.00,WeatherDisplay:10.37,2013-12-04 05:04:00,
2013-12-04 16:09:00,89.2,63.1,29.53,ENE,59,1.0,5.0,42,0.00,CLR,,0.00,WeatherDisplay:10.37,2013-12-04 05:09:00,
2013-12-04 16:14:00,89.0,62.9,29.53,NE,40,1.0,7.0,42,0.00,CLR,,0.00,WeatherDisplay:10.37,2013-12-04 05:14:00,
2013-12-04 16:19:00,88.9,62.1,29.54,NNE,23,2.0,4.0,41,0.00,CLR,,0.00,WeatherDisplay:10.37,2013-12-04 05:19:00,
2013-12-04 16:24:00,88.7,62.0,29.53,NNE,31,3.0,5.0,41,0.00,CLR,,0.00,WeatherDisplay:10.37,2013-12-04 05:24:00,
2013-12-04 16:29:00,88.9,62.8,29.53,NE,43,3.0,4.0,42,0.00,CLR,,0.00,WeatherDisplay:10.37,2013-12-04 05:29:00,
2013-12-04 16:34:00,89.2,62.5,29.53,NE,40,1.0,7.0,41,0.00,CLR,,0.00,WeatherDisplay:10.37,2013-12-04 05:34:00,
2013-12-04 16:39:00,89.2,62.5,29.52,NE,48,1.0,7.0,41,0.00,CLR,,0.00,WeatherDisplay:10.37,2013-12-04 05:39:00,
2013-12-04 16:49:00,89.8,61.5,29.52,ENE,63,2.0,5.0,39,0.00,CLR,,0.00,WeatherDisplay:10.37,2013-12-04 05:49:00,
2013-12-04 16:54:00,90.0,60.9,29.52,NE,51,1.0,6.0,38,0.00,CLR,,0.00,WeatherDisplay:10.37,2013-12-04 05:54:00,
2013-12-04 16:59:00,90.1,63.3,29.51,East,80,3.0,8.0,41,0.00,CLR,,0.00,WeatherDisplay:10.37,2013-12-04 05:59:00,
2013-12-04 17:04:00,89.8,63.6,29.51,East,93,2.0,11.0,42,0.00,CLR,,0.00,WeatherDisplay:10.37,2013-12-04 06:04:00,
2013-12-04 17:09:00,89.5,64.0,29.51,ENE,67,3.0,8.0,43,0.00,CLR,,0.00,WeatherDisplay:10.37,2013-12-04 06:09:00,
2013-12-04 17:14:00,89.3,64.5,29.51,NE,44,5.0,10.0,44,0.00,CLR,,0.00,WeatherDisplay:10.37,2013-12-04 06:14:00,
2013-12-04 17:19:00,89.2,65.1,29.51,NE,47,2.0,8.0,45,0.00,CLR,,0.00,WeatherDisplay:10.37,2013-12-04 06:19:00,
2013-12-04 17:24:00,89.4,65.3,29.51,ENE,67,3.0,7.0,45,0.00,CLR,,0.00,WeatherDisplay:10.37,2013-12-04 06:24:00,
2013-12-04 17:29:00,89.5,65.4,29.51,ENE,71,5.0,12.0,45,0.00,CLR,,0.00,WeatherDisplay:10.37,2013-12-04 06:29:00,
2013-12-04 17:34:00,89.4,65.9,29.51,ENE,77,2.0,12.0,46,0.00,CLR,,0.00,WeatherDisplay:10.37,2013-12-04 06:34:00,
2013-12-04 17:39:00,89.8,66.2,29.50,NE,56,2.0,10.0,46,0.00,CLR,,0.00,WeatherDisplay:10.37,2013-12-04 06:39:00,
2013-12-04 17:44:00,89.6,66.1,29.51,NNE,33,2.0,4.0,46,0.00,CLR,,0.00,WeatherDisplay:10.37,2013-12-04 06:44:00,
2013-12-04 17:49:00,90.0,57.8,29.51,NNW,338,7.0,13.0,34,0.00,CLR,,0.00,WeatherDisplay:10.37,2013-12-04 06:49:00,
2013-12-04 17:54:00,90.2,64.0,29.51,NNE,17,2.0,9.0,42,0.00,CLR,,0.00,WeatherDisplay:10.37,2013-12-04 06:54:00,
2013-12-04 17:59:00,91.0,59.5,29.50,NE,47,1.0,8.0,35,0.00,CLR,,0.00,WeatherDisplay:10.37,2013-12-04 06:59:00,
2013-12-04 18:04:00,91.6,55.8,29.50,North,352,5.0,13.0,30,0.00,CLR,,0.00,WeatherDisplay:10.37,2013-12-04 07:04:00,
2013-12-04 18:09:00,91.6,53.9,29.50,North,350,5.0,12.0,28,0.00,CLR,,0.00,WeatherDisplay:10.37,2013-12-04 07:09:00,
2013-12-04 18:14:00,91.2,52.6,29.50,NNW,344,7.0,13.0,27,0.00,CLR,,0.00,WeatherDisplay:10.37,2013-12-04 07:14:00,
2013-12-04 18:19:00,90.5,52.0,29.50,NNW,341,6.0,12.0,27,0.00,CLR,,0.00,WeatherDisplay:10.37,2013-12-04 07:19:00,
2013-12-04 18:24:00,90.3,51.8,29.50,NNW,345,3.0,9.0,27,0.00,CLR,,0.00,WeatherDisplay:10.37,2013-12-04 07:24:00,
2013-12-04 18:29:00,90.1,52.6,29.50,North,358,5.0,12.0,28,0.00,CLR,,0.00,WeatherDisplay:10.37,2013-12-04 07:29:00,
2013-12-04 18:34:00,89.7,52.2,29.50,North,2,3.0,7.0,28,0.00,CLR,,0.00,WeatherDisplay:10.37,2013-12-04 07:34:00,
2013-12-04 18:39:00,89.4,52.0,29.50,North,356,2.0,6.0,28,0.00,CLR,,0.00,WeatherDisplay:10.37,2013-12-04 07:39:00,
2013-12-04 18:44:00,89.1,52.7,29.50,North,357,3.0,6.0,29,0.00,CLR,,0.00,WeatherDisplay:10.37,2013-12-04 07:44:00,
2013-12-04 18:49:00,88.9,52.5,29.50,NNE,15,5.0,7.0,29,0.00,CLR,,0.00,WeatherDisplay:10.37,2013-12-04 07:49:00,
2013-12-04 18:54:00,88.5,52.2,29.49,NNE,18,3.0,6.0,29,0.00,CLR,,0.00,WeatherDisplay:10.37,2013-12-04 07:54:00,
2013-12-04 18:59:00,88.3,53.0,29.50,NE,45,0.0,4.0,30,0.00,CLR,,0.00,WeatherDisplay:10.37,2013-12-04 07:59:00,
2013-12-04 19:04:00,88.3,55.6,29.50,NE,50,2.0,5.0,33,0.00,CLR,,0.00,WeatherDisplay:10.37,2013-12-04 08:04:00,
2013-12-04 19:09:00,87.6,58.1,29.50,ENE,74,2.0,6.0,37,0.00,CLR,,0.00,WeatherDisplay:10.37,2013-12-04 08:09:00,
2013-12-04 19:14:00,87.2,59.9,29.50,ENE,71,2.0,7.0,40,0.00,CLR,,0.00,WeatherDisplay:10.37,2013-12-04 08:14:00,
2013-12-04 19:19:00,86.6,60.1,29.50,NE,53,3.0,5.0,41,0.00,CLR,,0.00,WeatherDisplay:10.37,2013-12-04 08:19:00,
2013-12-04 19:24:00,86.1,59.6,29.50,NE,55,1.0,7.0,41,0.00,CLR,,0.00,WeatherDisplay:10.37,2013-12-04 08:24:00,
2013-12-04 19:29:00,85.6,59.2,29.50,NNE,21,3.0,5.0,41,0.00,CLR,,0.00,WeatherDisplay:10.37,2013-12-04 08:29:00,
2013-12-04 19:34:00,85.3,59.6,29.50,NNE,16,2.0,5.0,42,0.00,CLR,,0.00,WeatherDisplay:10.37,2013-12-04 08:34:00,
2013-12-04 19:39:00,84.9,59.3,29.50,NE,43,2.0,7.0,42,0.00,CLR,,0.00,WeatherDisplay:10.37,2013-12-04 08:39:00,
2013-12-04 19:44:00,84.7,59.1,29.50,NE,38,2.0,5.0,42,0.00,CLR,,0.00,WeatherDisplay:10.37,2013-12-04 08:44:00,
2013-12-04 19:49:00,84.4,58.8,29.50,NE,56,1.0,8.0,42,0.00,CLR,,0.00,WeatherDisplay:10.37,2013-12-04 08:49:00,
2013-12-04 19:54:00,84.0,58.5,29.50,NE,36,3.0,9.0,42,0.00,CLR,,0.00,WeatherDisplay:10.37,2013-12-04 08:54:00,
2013-12-04 19:59:00,83.8,58.3,29.50,NNE,28,3.0,9.0,42,0.00,CLR,,0.00,WeatherDisplay:10.37,2013-12-04 08:59:00,
2013-12-04 20:04:00,83.7,57.5,29.50,NE,34,3.0,8.0,41,0.00,CLR,,0.00,WeatherDisplay:10.37,2013-12-04 09:04:00,
2013-12-04 20:09:00,83.7,57.5,29.50,NE,56,3.0,7.0,41,0.00,CLR,,0.00,WeatherDisplay:10.37,2013-12-04 09:09:00,
2013-12-04 20:14:00,83.1,57.0,29.50,ENE,65,2.0,6.0,41,0.00,CLR,,0.00,WeatherDisplay:10.37,2013-12-04 09:14:00,
2013-12-04 20:19:00,82.9,56.8,29.49,ENE,67,2.0,8.0,41,0.00,CLR,,0.00,WeatherDisplay:10.37,2013-12-04 09:19:00,
2013-12-04 20:24:00,82.2,56.2,29.49,NNE,29,2.0,8.0,41,0.00,CLR,,0.00,WeatherDisplay:10.37,2013-12-04 09:24:00,
2013-12-04 20:29:00,82.2,56.1,29.49,NE,35,3.0,6.0,41,0.00,CLR,,0.00,WeatherDisplay:10.37,2013-12-04 09:29:00,
2013-12-04 20:34:00,81.9,56.6,29.49,NNE,26,2.0,6.0,42,0.00,CLR,,0.00,WeatherDisplay:10.37,2013-12-04 09:34:00,
2013-12-04 20:39:00,81.7,56.4,29.49,NE,48,3.0,9.0,42,0.00,CLR,,0.00,WeatherDisplay:10.37,2013-12-04 09:39:00,
2013-12-04 20:44:00,81.5,56.2,29.49,NE,40,3.0,9.0,42,0.00,CLR,,0.00,WeatherDisplay:10.37,2013-12-04 09:44:00,
2013-12-04 20:49:00,81.3,56.7,29.49,NE,39,1.0,6.0,43,0.00,CLR,,0.00,WeatherDisplay:10.37,2013-12-04 09:49:00,
2013-12-04 20:54:00,81.3,57.3,29.49,NE,50,2.0,5.0,44,0.00,CLR,,0.00,WeatherDisplay:10.37,2013-12-04 09:54:00,
2013-12-04 20:59:00,81.3,57.3,29.49,NE,45,3.0,6.0,44,0.00,CLR,,0.00,WeatherDisplay:10.37,2013-12-04 09:59:00,
2013-12-04 21:04:00,81.3,57.3,29.49,NNE,28,2.0,11.0,44,0.00,CLR,,0.00,WeatherDisplay:10.37,2013-12-04 10:04:00,
2013-12-04 21:09:00,81.1,57.2,29.49,NNE,22,3.0,5.0,44,0.00,CLR,,0.00,WeatherDisplay:10.37,2013-12-04 10:09:00,
2013-12-04 21:14:00,81.1,57.8,29.48,NNE,23,2.0,4.0,45,0.00,CLR,,0.00,WeatherDisplay:10.37,2013-12-04 10:14:00,
2013-12-04 21:19:00,81.1,57.8,29.48,NNE,24,1.0,6.0,45,0.00,CLR,,0.00,WeatherDisplay:10.37,2013-12-04 10:19:00,
2013-12-04 21:24:00,81.0,57.6,29.48,NNE,28,2.0,4.0,45,0.00,CLR,,0.00,WeatherDisplay:10.37,2013-12-04 10:24:00,
2013-12-04 21:29:00,81.0,57.6,29.48,NNE,22,2.0,7.0,45,0.00,CLR,,0.00,WeatherDisplay:10.37,2013-12-04 10:29:00,
2013-12-04 21:34:00,81.0,56.4,29.47,NNE,29,1.0,4.0,43,0.00,CLR,,0.00,WeatherDisplay:10.37,2013-12-04 10:34:00,
2013-12-04 21:39:00,81.0,56.4,29.47,NE,44,1.0,5.0,43,0.00,CLR,,0.00,WeatherDisplay:10.37,2013-12-04 10:39:00,
2013-12-04 21:44:00,81.0,56.4,29.47,NE,50,2.0,6.0,43,0.00,CLR,,0.00,WeatherDisplay:10.37,2013-12-04 10:44:00,
2013-12-04 21:49:00,81.0,56.4,29.47,NE,38,3.0,7.0,43,0.00,CLR,,0.00,WeatherDisplay:10.37,2013-12-04 10:49:00,
2013-12-04 21:54:00,80.8,56.2,29.47,NNE,27,3.0,8.0,43,0.00,CLR,,0.00,WeatherDisplay:10.37,2013-12-04 10:54:00,
2013-12-04 21:59:00,80.6,56.0,29.47,NNE,22,2.0,5.0,43,0.00,CLR,,0.00,WeatherDisplay:10.37,2013-12-04 10:59:00,
2013-12-04 22:04:00,80.4,55.9,29.47,NNE,17,2.0,6.0,43,0.00,CLR,,0.00,WeatherDisplay:10.37,2013-12-04 11:04:00,
2013-12-04 22:09:00,80.2,55.7,29.47,NNE,19,2.0,7.0,43,0.00,CLR,,0.00,WeatherDisplay:10.37,2013-12-04 11:09:00,
2013-12-04 22:14:00,79.9,55.4,29.46,NNE,18,1.0,7.0,43,0.00,CLR,,0.00,WeatherDisplay:10.37,2013-12-04 11:14:00,
2013-12-04 22:19:00,79.7,55.2,29.46,NNE,25,1.0,6.0,43,0.00,CLR,,0.00,WeatherDisplay:10.37,2013-12-04 11:19:00,
2013-12-04 22:24:00,79.3,54.9,29.46,NNE,19,3.0,7.0,43,0.00,CLR,,0.00,WeatherDisplay:10.37,2013-12-04 11:24:00,
2013-12-04 22:29:00,79.2,55.4,29.46,NNE,30,2.0,5.0,44,0.00,CLR,,0.00,WeatherDisplay:10.37,2013-12-04 11:29:00,
2013-12-04 22:34:00,79.0,55.2,29.46,NNE,13,5.0,6.0,44,0.00,CLR,,0.00,WeatherDisplay:10.37,2013-12-04 11:34:00,
2013-12-04 22:39:00,78.6,55.5,29.45,NNE,16,3.0,5.0,45,0.00,CLR,,0.00,WeatherDisplay:10.37,2013-12-04 11:39:00,
2013-12-04 22:44:00,78.6,55.5,29.45,NNE,32,2.0,5.0,45,0.00,CLR,,0.00,WeatherDisplay:10.37,2013-12-04 11:44:00,
2013-12-04 22:49:00,78.4,55.9,29.45,NNE,29,2.0,5.0,46,0.00,CLR,,0.00,WeatherDisplay:10.37,2013-12-04 11:49:00,
2013-12-04 22:54:00,78.1,56.2,29.45,NNE,27,2.0,8.0,47,0.00,CLR,,0.00,WeatherDisplay:10.37,2013-12-04 11:54:00,
2013-12-04 22:59:00,77.9,56.1,29.44,NNE,17,2.0,6.0,47,0.00,CLR,,0.00,WeatherDisplay:10.37,2013-12-04 11:59:00,
2013-12-04 23:04:00,77.9,56.6,29.44,NE,35,2.0,6.0,48,0.00,CLR,,0.00,WeatherDisplay:10.37,2013-12-04 12:04:00,
2013-12-04 23:09:00,77.9,56.6,29.44,NE,51,2.0,8.0,48,0.00,CLR,,0.00,WeatherDisplay:10.37,2013-12-04 12:09:00,
2013-12-04 23:14:00,77.8,56.5,29.44,NE,46,3.0,7.0,48,0.00,CLR,,0.00,WeatherDisplay:10.37,2013-12-04 12:14:00,
2013-12-04 23:19:00,77.9,57.2,29.44,NE,50,1.0,5.0,49,0.00,CLR,,0.00,WeatherDisplay:10.37,2013-12-04 12:19:00,
2013-12-04 23:24:00,77.9,57.2,29.43,ENE,62,0.0,2.0,49,0.00,CLR,,0.00,WeatherDisplay:10.37,2013-12-04 12:24:00,
2013-12-04 23:29:00,77.7,57.0,29.44,NE,44,0.0,3.0,49,0.00,CLR,,0.00,WeatherDisplay:10.37,2013-12-04 12:29:00,
2013-12-04 23:34:00,77.5,57.4,29.44,NE,48,2.0,9.0,50,0.00,CLR,,0.00,WeatherDisplay:10.37,2013-12-04 12:34:00,
2013-12-04 23:39:00,77.5,58.0,29.44,NE,34,0.0,2.0,51,0.00,CLR,,0.00,WeatherDisplay:10.37,2013-12-04 12:39:00,
2013-12-04 23:44:00,77.5,58.0,29.43,North,10,0.0,1.0,51,0.00,CLR,,0.00,WeatherDisplay:10.37,2013-12-04 12:44:00,
2013-12-04 23:49:00,77.5,58.5,29.43,NE,36,0.0,2.0,52,0.00,CLR,,0.00,WeatherDisplay:10.37,2013-12-04 12:49:00,
2013-12-04 23:54:00,77.4,58.4,29.43,NE,38,1.0,4.0,52,0.00,CLR,,0.00,WeatherDisplay:10.37,2013-12-04 12:54:00,
2013-12-04 23:59:00,77.2,58.7,29.42,NNE,16,0.0,3.0,53,0.00,CLR,,0.00,WeatherDisplay:10.37,2013-12-04 12:59:00,